When you browse on this site, cookies collect data to enhance your experience and personalize the content and advertising you see.
Visit our Privacy Policy to learn more. By continuing to use the site, you agree to this use of cookies and data.
  • In United Kingdom
  • List of Countries
  • For 7 days
  • Water Temperature
  • Satellite Maps
  • Weather Map
  • Weather Widgets
  • user-avatar
    Login

    Hourly Weather Smolag

    Today, 21 February, Thursday

    Time Temperature Precipitation Wind Pressure Humidity
    00:00 +2°C° 0 mm 3 mps 759 mmHg 93%
    01:00 +3°C° 0 mm 2 mps 759 mmHg 94%
    02:00 +3°C° 0.1 mm 2 mps 759 mmHg 95%
    03:00 +3°C° 0.1 mm 2 mps 759 mmHg 95%
    04:00 +3°C° 0.1 mm 2 mps 759 mmHg 96%
    05:00 +3°C° 0.4 mm 2 mps 759 mmHg 96%
    06:00 +4°C° 0.4 mm 2 mps 759 mmHg 96%
    07:00 +4°C° 0.4 mm 2 mps 758 mmHg 96%
    08:00 +4°C° 0.7 mm 2 mps 758 mmHg 95%
    09:00 +4°C° 0.7 mm 2 mps 758 mmHg 94%
    10:00 +4°C° 0.7 mm 3 mps 758 mmHg 93%
    11:00 +4°C° 1.2 mm 3 mps 758 mmHg 93%
    12:00 +4°C° 1.2 mm 3 mps 758 mmHg 92%
    13:00 +4°C° 1.2 mm 3 mps 758 mmHg 91%
    14:00 +4°C° 1.2 mm 3 mps 757 mmHg 92%
    15:00 +4°C° 1.2 mm 3 mps 757 mmHg 92%
    16:00 +4°C° 1.2 mm 3 mps 757 mmHg 92%
    17:00 +4°C° 0.9 mm 3 mps 757 mmHg 93%
    18:00 +5°C° 0.9 mm 2 mps 757 mmHg 94%
    19:00 +5°C° 0.9 mm 2 mps 757 mmHg 95%
    20:00 +3°C° 0.5 mm 3 mps 757 mmHg 94%
    21:00 +3°C° 0.5 mm 4 mps 758 mmHg 93%
    22:00 +1°C° 0.5 mm 5 mps 758 mmHg 92%
    23:00 0°C° 0.2 mm 5 mps 759 mmHg 90%

    Tomorrow, 22 February, Friday

    Time Temperature Precipitation Wind Pressure Humidity
    00:00 -2°C° 0.2 mm 6 mps 760 mmHg 87%
    01:00 -3°C° 0.2 mm 6 mps 761 mmHg 84%
    02:00 -4°C° 0 mm 6 mps 762 mmHg 79%
    03:00 -4°C° 0 mm 6 mps 763 mmHg 74%
    04:00 -5°C° 0 mm 5 mps 764 mmHg 69%
    05:00 -5°C° 0 mm 5 mps 765 mmHg 67%
    06:00 -5°C° 0 mm 5 mps 766 mmHg 65%
    07:00 -6°C° 0 mm 5 mps 768 mmHg 63%
    08:00 -5°C° 0 mm 5 mps 769 mmHg 58%
    09:00 -5°C° 0 mm 5 mps 770 mmHg 54%
    10:00 -4°C° 0 mm 5 mps 771 mmHg 50%
    11:00 -3°C° 0 mm 4 mps 771 mmHg 47%
    12:00 -3°C° 0 mm 4 mps 772 mmHg 45%
    13:00 -2°C° 0 mm 4 mps 772 mmHg 42%
    14:00 -3°C° 0 mm 4 mps 772 mmHg 43%
    15:00 -3°C° 0 mm 4 mps 773 mmHg 45%
    16:00 -3°C° 0 mm 4 mps 773 mmHg 46%
    17:00 -4°C° 0 mm 3 mps 773 mmHg 48%
    18:00 -4°C° 0 mm 3 mps 774 mmHg 50%
    19:00 -5°C° 0 mm 3 mps 774 mmHg 52%
    20:00 -4°C° 0 mm 2 mps 775 mmHg 52%
    21:00 -4°C° 0 mm 2 mps 775 mmHg 52%
    22:00 -2°C° 0 mm 1 mps 775 mmHg 51%
    23:00 -2°C° 0 mm 1 mps 775 mmHg 50%

    Day after tomorrow, 23 February, Saturday

    Time Temperature Precipitation Wind Pressure Humidity
    00:00 -2°C° 0 mm 1 mps 775 mmHg 50%
    01:00 -2°C° 0 mm 1 mps 775 mmHg 49%
    02:00 -2°C° 0 mm 1 mps 775 mmHg 48%
    03:00 -2°C° 0 mm 1 mps 775 mmHg 47%
    04:00 -3°C° 0 mm 0 mps 775 mmHg 46%
    05:00 -3°C° 0 mm 0 mps 775 mmHg 46%
    06:00 -3°C° 0 mm 0 mps 776 mmHg 46%
    07:00 -3°C° 0 mm 0 mps 776 mmHg 46%
    08:00 -1°C° 0 mm 1 mps 776 mmHg 42%
    09:00 0°C° 0 mm 1 mps 776 mmHg 39%
    10:00 -2°C° 0 mm 2 mps 776 mmHg 35%
    11:00 -1°C° 0 mm 2 mps 776 mmHg 33%
    12:00 +1°C° 0 mm 2 mps 776 mmHg 32%
    13:00 +2°C° 0 mm 2 mps 775 mmHg 30%
    14:00 +2°C° 0 mm 2 mps 775 mmHg 32%
    15:00 +1°C° 0 mm 2 mps 775 mmHg 35%
    16:00 +1°C° 0 mm 2 mps 774 mmHg 37%
    17:00 +1°C° 0 mm 2 mps 774 mmHg 40%
    18:00 -1°C° 0 mm 2 mps 774 mmHg 44%
    19:00 -2°C° 0 mm 2 mps 773 mmHg 47%
    20:00 -2°C° 0 mm 2 mps 773 mmHg 48%
    21:00 -1°C° 0 mm 3 mps 773 mmHg 48%
    22:00 -1°C° 0 mm 3 mps 773 mmHg 49%
    23:00 -1°C° 0 mm 3 mps 772 mmHg 50%

    24 February, Sunday

    Time Temperature Precipitation Wind Pressure Humidity
    00:00 -1°C° 0 mm 3 mps 772 mmHg 51%
    01:00 -1°C° 0 mm 3 mps 772 mmHg 52%
    02:00 -1°C° 0 mm 3 mps 772 mmHg 53%
    03:00 -1°C° 0 mm 3 mps 771 mmHg 55%
    04:00 -1°C° 0 mm 3 mps 771 mmHg 56%
    05:00 -1°C° 0 mm 3 mps 771 mmHg 59%
    06:00 -1°C° 0 mm 3 mps 770 mmHg 61%
    07:00 -1°C° 0 mm 3 mps 770 mmHg 63%
    08:00 0°C° 0 mm 3 mps 770 mmHg 63%
    09:00 +2°C° 0 mm 3 mps 770 mmHg 62%
    10:00 +3°C° 0 mm 4 mps 769 mmHg 62%
    11:00 +4°C° 0 mm 4 mps 769 mmHg 63%
    12:00 +4°C° 0 mm 4 mps 769 mmHg 64%
    13:00 +5°C° 0 mm 4 mps 768 mmHg 66%
    14:00 +5°C° 0 mm 4 mps 768 mmHg 67%
    15:00 +5°C° 0 mm 4 mps 767 mmHg 69%
    16:00 +5°C° 0 mm 4 mps 767 mmHg 70%
    17:00 +4°C° 0 mm 4 mps 767 mmHg 71%
    18:00 +3°C° 0 mm 4 mps 767 mmHg 72%
    19:00 +3°C° 0 mm 4 mps 766 mmHg 72%
    20:00 +3°C° 0 mm 4 mps 766 mmHg 78%
    21:00 +3°C° 0 mm 4 mps 766 mmHg 84%
    22:00 +3°C° 0 mm 4 mps 767 mmHg 89%
    23:00 +2°C° 0 mm 5 mps 767 mmHg 90%

    25 February, Monday

    Time Temperature Precipitation Wind Pressure Humidity
    00:00 +2°C° 0 mm 5 mps 767 mmHg 90%
    01:00 +2°C° 0 mm 5 mps 768 mmHg 90%
    02:00 +2°C° 0 mm 5 mps 768 mmHg 89%
    03:00 +1°C° 0 mm 5 mps 769 mmHg 88%
    04:00 +1°C° 0 mm 5 mps 769 mmHg 87%
    05:00 +1°C° 0 mm 4 mps 769 mmHg 87%
    06:00 0°C° 0 mm 4 mps 770 mmHg 87%
    07:00 +1°C° 0 mm 3 mps 770 mmHg 87%
    08:00 +1°C° 0 mm 4 mps 771 mmHg 80%
    09:00 +3°C° 0 mm 4 mps 771 mmHg 73%
    10:00 +3°C° 0 mm 5 mps 772 mmHg 66%
    11:00 +5°C° 0 mm 4 mps 771 mmHg 61%
    12:00 +6°C° 0 mm 4 mps 771 mmHg 56%
    13:00 +7°C° 0 mm 4 mps 771 mmHg 51%
    14:00 +8°C° 0 mm 3 mps 771 mmHg 53%
    15:00 +7°C° 0 mm 3 mps 771 mmHg 55%
    16:00 +7°C° 0 mm 2 mps 770 mmHg 57%
    17:00 +5°C° 0 mm 3 mps 770 mmHg 62%
    18:00 +4°C° 0 mm 3 mps 770 mmHg 67%
    19:00 +3°C° 0 mm 3 mps 770 mmHg 71%
    20:00 +3°C° 0 mm 3 mps 769 mmHg 70%
    21:00 +3°C° 0 mm 4 mps 769 mmHg 69%
    22:00 +1°C° 0 mm 4 mps 768 mmHg 68%
    23:00 +2°C° 0 mm 5 mps 767 mmHg 72%

    26 February, Tuesday

    Time Temperature Precipitation Wind Pressure Humidity
    00:00 +2°C° 0 mm 5 mps 767 mmHg 75%
    01:00 +2°C° 0 mm 5 mps 766 mmHg 79%
    02:00 +2°C° 0 mm 5 mps 765 mmHg 79%
    03:00 +3°C° 0 mm 5 mps 765 mmHg 79%
    04:00 +3°C° 0 mm 5 mps 764 mmHg 79%
    05:00 +3°C° 0 mm 5 mps 764 mmHg 77%
    06:00 +3°C° 0 mm 5 mps 763 mmHg 76%
    07:00 +3°C° 0 mm 5 mps 763 mmHg 75%
    08:00 +3°C° 0 mm 5 mps 763 mmHg 74%
    09:00 +5°C° 0 mm 5 mps 763 mmHg 72%
    10:00 +5°C° 0 mm 5 mps 762 mmHg 71%
    11:00 +6°C° 0 mm 5 mps 762 mmHg 68%
    12:00 +7°C° 0 mm 5 mps 761 mmHg 65%
    13:00 +8°C° 0 mm 5 mps 761 mmHg 62%
    14:00 +8°C° 0 mm 5 mps 761 mmHg 65%
    15:00 +8°C° 0 mm 5 mps 760 mmHg 67%
    16:00 +8°C° 0 mm 5 mps 760 mmHg 69%
    17:00 +7°C° 0 mm 4 mps 760 mmHg 75%
    18:00 +6°C° 0 mm 4 mps 760 mmHg 80%
    19:00 +5°C° 0 mm 4 mps 760 mmHg 86%
    20:00 +4°C° 0 mm 3 mps 761 mmHg 88%
    21:00 +4°C° 0 mm 3 mps 761 mmHg 91%
    22:00 +3°C° 0 mm 3 mps 761 mmHg 93%
    23:00 +4°C° 0 mm 2 mps 761 mmHg 91%
    Show more